Regional Weather Roundup
Issued by NWS

Home | Current Version | Previous Version | Graphics & Text | Print | Product List | Glossary On
Versions: 1 2 3 4 5 6 7 8 9 10 11 12 13 14 15 16 17 18 19 20 21 22 23 24 25 26 27 28 29 30 31 32 33 34 35 36 37 38 39 40 41 42 43 44 45 46 47 48 49 50
000
ASUS43 KLOT 191704
RWRIL

ILLINOIS REGIONAL WEATHER ROUNDUP
NATIONAL WEATHER SERVICE CHICAGO/ROMEOVILLE IL
1200 PM CDT THU OCT 19 2017

NOTE: "FAIR" INDICATES FEW OR NO CLOUDS BELOW 12,000 FEET WITH NO
SIGNIFICANT WEATHER AND/OR OBSTRUCTIONS TO VISIBILITY.

* THESE STATIONS ARE NOT UNDER NWS QUALITY CONTROL. THEY ALSO MAY NOT
  REPORT WEATHER SUCH AS PRECIPITATION OR FOG.

ILZ001-002-007-009-015-016-024-191800-
NORTHWEST ILLINOIS

CITY           SKY/WX    TMP DP  RH WIND       PRES   REMARKS
MOLINE         SUNNY     69  39  33 E10       30.18R
STERLING*      SUNNY     69  29  22 E12         N/A
SAVANNA*       SUNNY     68  30  23 SE7       30.19R
$$

ILZ003-004-008-010-011-017-018-191800-
NORTH CENTRAL ILLINOIS

CITY           SKY/WX    TMP DP  RH WIND       PRES   REMARKS
ROCKFORD       PTSUNNY   65  28  24 VRB3      30.20S
FREEPORT*      SUNNY     66  27  23 NE5       30.20F
ROCHELLE*      SUNNY     66  28  23 E7        30.20S
DE KALB*       SUNNY     66  28  24 E7        30.20S
PERU*          SUNNY     66  30  26 E6        30.20R
$$

ILZ005-006-012>014-019>023-191800-
NORTHEAST ILLINOIS

CITY           SKY/WX    TMP DP  RH WIND       PRES   REMARKS
CHICAGO-OHARE  MOSUNNY   66  26  22 VRB3      30.19S
CHICAGO-MIDWAY MOSUNNY   67  25  20 NE5       30.20R
AURORA         SUNNY     66  28  24 NE7       30.20S
LANSING*       SUNNY     65  33  30 N5        30.20S
JOLIET*        SUNNY     67  31  26 CALM      30.20S
WAUKEGAN       SUNNY     65  28  24 CALM      30.18S
DUPAGE AIRPORT SUNNY     65  28  24 E6        30.19R
KANKAKEE*      SUNNY     67  39  36 NE3       30.20S
WHEELING       SUNNY     65  26  23 CALM      30.21R
MORRIS*        SUNNY     67  23  19 E5        30.19R
ROMEOVILLE*    SUNNY     66  32  27 E6        30.19S
NORTHERLY ISL    N/A     63  31  30 NE6         N/A
$$

LMZ740>746-191800-
SOUTHERN LAKE MICHIGAN

STATION/POSITION SKY/WX   TEMP    WIND        PRES    VSBY  WAVE
                          AIR SEA DIR/SP/G                  HT/PER
                          (F)     (DEG/KT/KT) (MB)    (MI)  (FT/S)
SOUTHERN BUOY              58 61  310/  8/ 12 1021.9          2/ 5
WILMETTE HARBOR            58 57  290/  2/  2   N/A           1
HARRISON CRIB              60     350/  3/  3   N/A
BURNHAM HARBOR             63      40/  5/  6   N/A
CALUMET HARBOR             62     340/  6/  8 1022.0R
BURNS HARBOR               59     340/  4/  5 1023.0R
MICHIGAN CITY              62     330/  5/  6   N/A
MICHIGAN CITY 6N           59 58  350/  4/  6   N/A           2/ 3
ST. JOSEPH                 60 59  360/  6/  8 1022.8R         2/ 4
$$

ILZ025>027-034>036-040-047-049-050-058-095>099-191800-
WEST-CENTRAL ILLINOIS

CITY           SKY/WX    TMP DP  RH WIND       PRES   REMARKS
QUINCY         SUNNY     69  50  50 CALM      30.17S
GALESBURG*     SUNNY     74  58  58 E8        30.19S
MACOMB*        SUNNY     69  50  50 SE3       30.20S
JACKSONVILLE*  SUNNY     70  51  51 CALM      30.18S
PITTSFIELD*    SUNNY     71  52  50 SE3       30.18S
$$

ILZ028>032-037-038-041>044-048-051>054-059>061-191800-
CENTRAL ILLINOIS

CITY           SKY/WX    TMP DP  RH WIND       PRES   REMARKS
PONTIAC        SUNNY     67  41  37 E5        30.20S
BLOOMINGTON    SUNNY     69  51  52 CALM      30.20S
DECATUR        SUNNY     68  52  56 W3        30.20S
PEORIA         SUNNY     67  52  58 E3        30.19R
LACON*         SUNNY     68  37  32 E8        30.19S
LINCOLN*       SUNNY     70  53  55 CALM      30.19S
SPRINGFIELD    SUNNY     73  53  49 CALM      30.19S
TAYLORVILLE    SUNNY     72  50  47 S3        30.20S
$$

ILZ033-039-045-046-055>057-062-063-191800-
EAST-CENTRAL ILLINOIS

CITY           SKY/WX    TMP DP  RH WIND       PRES   REMARKS
CHAMPAIGN      SUNNY     71  50  47 CALM      30.20F
DANVILLE*      SUNNY     68  51  53 CALM      30.18S
RANTOUL*       SUNNY     69  53  56 CALM      30.19S
MATTOON        SUNNY     70  53  54 W3        30.21R
PARIS*         SUNNY     71  52  51 SW6       30.21F
$$

ILZ079-100>102-191800-
SOUTHWEST ILLINOIS

CITY           SKY/WX    TMP DP  RH WIND       PRES   REMARKS
ALTON          SUNNY     70  54  56 SW7       30.21S
CAHOKIA*       SUNNY     74  51  44 VRB5      30.20S
SPARTA*        SUNNY     74  51  44 W5        30.23S
$$

ILZ064>066-069>071-074>076-080>082-084>086-088>090-092>094-191800-
SOUTH-CENTRAL ILLINOIS

CITY           SKY/WX    TMP DP  RH WIND       PRES   REMARKS
CARBONDALE     SUNNY     72  54  53 SW7       30.23S
EFFINGHAM*     SUNNY     73  51  45 W3        30.23S
MARION         SUNNY    N/A N/A N/A SW12      30.24S
MT. VERNON     SUNNY     72  54  53 SW6       30.22F
CENTRALIA*     SUNNY     75  52  43 SW7       30.21F
SALEM*         SUNNY     76  48  37 W8        30.21F
METROPOLIS*    SUNNY     72  51  46 S8        30.27S
$$

ILZ067-068-072-073-078-083-087-091-191800-
SOUTHEAST ILLINOIS

CITY           SKY/WX    TMP DP  RH WIND       PRES   REMARKS
LAWRENCEVILLE  SUNNY     70  53  54 SW5       30.23F
FLORA*         SUNNY     73  53  49 CALM      30.22S
FAIRFIELD*     SUNNY     72  51  48 SW5       30.22S
HARRISBURG*    SUNNY     71  53  51 SW8       30.24S
ROBINSON*      SUNNY     70  51  51 SW7       30.24S
CARMI*         SUNNY     73  52  47 W5        30.23S
$$

ABBREVIATIONS USED IN REMARKS
   TC - TEMPERATURE IN CELSIUS
  WCI - WIND CHILL INDEX
   HX - HEAT INDEX
  VSB - VISIBILITY
$$





USA.gov is the U.S. government's official web portal to all federal, state and local government web resources and services.